| time (UTC) | temp C | wind direction | speed KPH | gust KPH | rain 1hr cm | rain 24hr cm | rain mn cm | humidity % | barometer mb |
| 20260906210525 | 26 | 90 | 0.0 | 3.2 | 0.00 | 0.00 | 0.00 | 50 | 984.3 |
| 20260906210025 | 26 | 100 | 0.0 | 4.8 | 0.00 | 0.00 | 0.00 | 50 | 984.3 |
| 20260906205524 | 26 | 100 | 1.6 | 4.8 | 0.00 | 0.00 | 0.00 | 50 | 984.4 |
| 20260906205028 | 26 | 103 | 0.0 | 4.8 | 0.00 | 0.00 | 0.00 | 50 | 984.4 |
| 20260906204541 | 26 | 128 | 1.6 | 8.0 | 0.00 | 0.00 | 0.00 | 51 | 984.6 |
| 20260906204024 | 26 | 128 | 3.2 | 8.0 | 0.00 | 0.00 | 0.00 | 50 | 984.7 |
| 20260906203524 | 26 | 122 | 1.6 | 11.3 | 0.00 | 0.00 | 0.00 | 50 | 984.7 |
| 20260906203024 | 26 | 59 | 4.8 | 11.3 | 0.00 | 0.00 | 0.00 | 49 | 984.7 |
| 20260906202523 | 26 | 142 | 3.2 | 11.3 | 0.00 | 0.00 | 0.00 | 50 | 984.7 |
| 20260906202027 | 26 | 129 | 3.2 | 14.5 | 0.00 | 0.00 | 0.00 | 49 | 984.7 |
| 20260906201524 | 26 | 153 | 6.4 | 14.5 | 0.00 | 0.00 | 0.00 | 50 | 984.9 |
| 20260906201025 | 26 | 82 | 4.8 | 14.5 | 0.00 | 0.00 | 0.00 | 50 | 984.9 |
| 20260906200523 | 26 | 141 | 6.4 | 14.5 | 0.00 | 0.00 | 0.00 | 49 | 985.0 |
| 20260906200023 | 26 | 88 | 3.2 | 19.3 | 0.00 | 0.00 | 0.00 | 50 | 984.7 |
| 20260906195522 | 26 | 122 | 6.4 | 19.3 | 0.00 | 0.00 | 0.00 | 49 | 984.6 |
| 20260906195022 | 26 | 115 | 3.2 | 14.5 | 0.00 | 0.00 | 0.00 | 49 | 984.3 |
| 20260906194522 | 26 | 98 | 6.4 | 16.1 | 0.00 | 0.00 | 0.00 | 50 | 984.1 |
| 20260906194021 | 26 | 101 | 6.4 | 19.3 | 0.00 | 0.00 | 0.00 | 49 | 984.2 |
| 20260906193522 | 26 | 87 | 4.8 | 12.9 | 0.00 | 0.00 | 0.00 | 51 | 984.0 |
| 20260906193022 | 26 | 103 | 3.2 | 11.3 | 0.00 | 0.00 | 0.00 | 50 | 983.8 |
| 20260906192519 | 26 | 140 | 3.2 | 12.9 | 0.00 | 0.00 | 0.00 | 50 | 984.2 |
| 20260906192019 | 26 | 132 | 1.6 | 12.9 | 0.00 | 0.00 | 0.00 | 50 | 984.3 |
| 20260906191519 | 26 | 94 | 3.2 | 11.3 | 0.00 | 0.00 | 0.00 | 50 | 984.3 |
| 20260906191018 | 26 | 120 | 4.8 | 11.3 | 0.00 | 0.00 | 0.00 | 49 | 984.2 |
| 20260906190518 | 26 | 115 | 3.2 | 12.9 | 0.00 | 0.00 | 0.00 | 50 | 984.3 |
| 20260906190017 | 26 | 74 | 4.8 | 12.9 | 0.00 | 0.00 | 0.00 | 50 | 984.4 |
| 20260906185515 | 26 | 110 | 4.8 | 12.9 | 0.00 | 0.00 | 0.00 | 51 | 984.7 |
| 20260906185015 | 26 | 94 | 3.2 | 9.7 | 0.00 | 0.00 | 0.00 | 50 | 984.7 |
| 20260906184515 | 25 | 142 | 1.6 | 12.9 | 0.00 | 0.00 | 0.00 | 52 | 984.9 |
| 20260906184014 | 25 | 115 | 0.0 | 12.9 | 0.00 | 0.00 | 0.00 | 51 | 985.1 |
| 20260906183512 | 25 | 100 | 4.8 | 12.9 | 0.00 | 0.00 | 0.00 | 51 | 985.2 |
| 20260906183014 | 25 | 360 | 4.8 | 22.5 | 0.00 | 0.00 | 0.00 | 51 | 985.3 |
| 20260906182510 | 25 | 67 | 6.4 | 22.5 | 0.00 | 0.00 | 0.00 | 52 | 985.2 |
| 20260906182013 | 25 | 26 | 4.8 | 14.5 | 0.00 | 0.00 | 0.00 | 52 | 985.2 |
| 20260906181508 | 25 | 73 | 4.8 | 14.5 | 0.00 | 0.00 | 0.00 | 52 | 985.3 |
| 20260906181008 | 25 | 24 | 4.8 | 16.1 | 0.00 | 0.00 | 0.00 | 53 | 985.5 |
| 20260906180510 | 25 | 46 | 4.8 | 16.1 | 0.00 | 0.00 | 0.00 | 52 | 985.6 |
| 20260906180007 | 25 | 75 | 8.0 | 14.5 | 0.00 | 0.00 | 0.00 | 52 | 985.7 |
| 20260906175506 | 25 | 83 | 3.2 | 11.3 | 0.00 | 0.00 | 0.00 | 55 | 985.7 |
| 20260906175005 | 25 | 59 | 4.8 | 12.9 | 0.00 | 0.00 | 0.00 | 53 | 985.7 |
| 20260906174505 | 25 | 70 | 6.4 | 12.9 | 0.00 | 0.00 | 0.00 | 53 | 985.9 |
| 20260906174005 | 25 | 86 | 1.6 | 11.3 | 0.00 | 0.00 | 0.00 | 54 | 986.1 |
| 20260906173504 | 24 | 88 | 3.2 | 11.3 | 0.00 | 0.00 | 0.00 | 54 | 986.4 |
| 20260906173002 | 24 | 29 | 0.0 | 12.9 | 0.00 | 0.00 | 0.00 | 55 | 986.5 |
| 20260906172502 | 24 | 69 | 0.0 | 12.9 | 0.00 | 0.00 | 0.00 | 56 | 986.5 |
| 20260906172101 | 23 | 96 | 3.2 | 9.7 | 0.00 | 0.00 | 0.00 | 56 | 986.5 |
| 20260906171604 | 23 | 59 | 1.6 | 8.0 | 0.00 | 0.00 | 0.00 | 58 | 986.5 |
| 20260906171057 | 23 | 345 | 1.6 | 6.4 | 0.00 | 0.00 | 0.00 | 59 | 986.4 |
| 20260906170556 | 23 | 59 | 0.0 | 6.4 | 0.00 | 0.00 | 0.00 | 61 | 986.4 |
| 20260906170108 | 22 | 360 | 0.0 | 9.7 | 0.00 | 0.00 | 0.00 | 62 | 986.4 |
| 20260906165554 | 22 | 42 | 3.2 | 9.7 | 0.00 | 0.00 | 0.00 | 63 | 986.5 |
| 20260906165055 | 22 | 360 | 1.6 | 9.7 | 0.00 | 0.00 | 0.00 | 64 | 986.7 |
| 20260906164550 | 21 | 53 | 3.2 | 9.7 | 0.00 | 0.00 | 0.00 | 65 | 986.9 |
| 20260906164049 | 21 | 98 | 3.2 | 14.5 | 0.00 | 0.00 | 0.00 | 66 | 986.9 |
| 20260906163547 | 21 | 355 | 4.8 | 14.5 | 0.00 | 0.00 | 0.00 | 67 | 986.8 |
| 20260906163055 | 21 | 9 | 1.6 | 9.7 | 0.00 | 0.00 | 0.00 | 68 | 986.9 |
| 20260906162545 | 20 | 96 | 4.8 | 9.7 | 0.00 | 0.00 | 0.00 | 69 | 986.9 |
| 20260906162043 | 20 | 117 | 1.6 | 4.8 | 0.00 | 0.00 | 0.00 | 69 | 987.0 |
| 20260906161545 | 20 | 333 | 0.0 | 4.8 | 0.00 | 0.00 | 0.00 | 69 | 987.0 |
| 20260906161039 | 20 | 76 | 1.6 | 9.7 | 0.00 | 0.00 | 0.00 | 69 | 987.0 |
| 20260906160539 | 19 | 91 | 0.0 | 9.7 | 0.00 | 0.00 | 0.00 | 69 | 987.2 |
| 20260906160046 | 19 | 84 | 3.2 | 6.4 | 0.00 | 0.00 | 0.00 | 69 | 987.2 |
| 20260906155541 | 18 | 55 | 0.0 | 6.4 | 0.00 | 0.00 | 0.00 | 69 | 987.2 |
| 20260906155036 | 18 | 43 | 3.2 | 6.4 | 0.00 | 0.00 | 0.00 | 69 | 987.2 |
| 20260906154536 | 18 | 15 | 1.6 | 6.4 | 0.00 | 0.00 | 0.00 | 69 | 987.3 |
| 20260906154037 | 18 | 300 | 3.2 | 6.4 | 0.00 | 0.00 | 0.00 | 69 | 987.3 |
| 20260906153534 | 18 | 338 | 1.6 | 6.4 | 0.00 | 0.00 | 0.00 | 69 | 987.3 |
| 20260906153040 | 18 | 360 | 1.6 | 4.8 | 0.00 | 0.00 | 0.00 | 69 | 987.2 |
| 20260906152534 | 18 | 132 | 0.0 | 3.2 | 0.00 | 0.00 | 0.00 | 69 | 987.2 |
| 20260906152030 | 18 | 132 | 0.0 | 3.2 | 0.00 | 0.00 | 0.00 | 69 | 987.1 |
| 20260906151530 | 18 | 144 | 0.0 | 3.2 | 0.00 | 0.00 | 0.00 | 69 | 987.2 |
| 20260906151028 | 17 | 144 | 0.0 | 3.2 | 0.00 | 0.00 | 0.00 | 69 | 987.4 |
| 20260906150528 | 17 | 144 | 0.0 | 1.6 | 0.00 | 0.00 | 0.00 | 69 | 987.3 |
| 20260906150029 | 17 | 144 | 0.0 | 1.6 | 0.00 | 0.00 | 0.00 | 69 | 987.4 |
| 20260906145526 | 17 | 144 | 0.0 | 1.6 | 0.00 | 0.28 | 0.00 | 69 | 987.3 |
| 20260906145027 | 17 | 144 | 0.0 | 3.2 | 0.00 | 0.28 | 0.00 | 69 | 987.3 |
| 20260906144525 | 17 | 144 | 0.0 | 4.8 | 0.00 | 0.28 | 0.00 | 69 | 987.4 |
| 20260906144025 | 17 | 144 | 0.0 | 4.8 | 0.00 | 0.28 | 0.00 | 70 | 987.3 |
| 20260906143524 | 17 | 148 | 0.0 | 3.2 | 0.00 | 0.28 | 0.00 | 70 | 987.2 |
| 20260906143023 | 17 | 148 | 0.0 | 1.6 | 0.00 | 0.28 | 0.00 | 70 | 987.0 |
| 20260906142524 | 17 | 148 | 0.0 | 3.2 | 0.00 | 0.28 | 0.00 | 69 | 986.9 |
| 20260906142024 | 17 | 148 | 0.0 | 4.8 | 0.00 | 0.28 | 0.00 | 69 | 986.8 |
| 20260906141523 | 16 | 150 | 0.0 | 4.8 | 0.00 | 0.28 | 0.00 | 70 | 986.8 |
| 20260906141022 | 16 | 144 | 0.0 | 4.8 | 0.00 | 0.28 | 0.00 | 70 | 986.8 |
| 20260906140522 | 16 | 138 | 0.0 | 4.8 | 0.00 | 0.28 | 0.00 | 70 | 986.9 |
| 20260906140023 | 16 | 125 | 0.0 | 4.8 | 0.00 | 0.28 | 0.00 | 70 | 986.9 |
| 20260906135522 | 16 | 142 | 1.6 | 4.8 | 0.00 | 0.51 | 0.00 | 70 | 987.0 |
| 20260906135020 | 16 | 134 | 1.6 | 4.8 | 0.00 | 0.51 | 0.00 | 70 | 987.1 |
| 20260906134522 | 16 | 130 | 0.0 | 3.2 | 0.00 | 0.51 | 0.00 | 70 | 987.1 |
| 20260906134021 | 16 | 130 | 0.0 | 0.0 | 0.00 | 0.51 | 0.00 | 70 | 987.2 |
| 20260906133523 | 16 | 130 | 0.0 | 0.0 | 0.00 | 0.51 | 0.00 | 70 | 987.4 |
| 20260906133020 | 16 | 130 | 0.0 | 4.8 | 0.00 | 0.51 | 0.00 | 70 | 987.5 |
| 20260906132520 | 16 | 130 | 0.0 | 4.8 | 0.00 | 0.51 | 0.00 | 70 | 987.5 |
| 20260906132020 | 16 | 134 | 0.0 | 3.2 | 0.00 | 0.51 | 0.00 | 70 | 987.6 |
| 20260906131520 | 16 | 134 | 0.0 | 1.6 | 0.00 | 0.51 | 0.00 | 70 | 987.6 |
| 20260906131019 | 16 | 134 | 0.0 | 0.0 | 0.00 | 0.51 | 0.00 | 70 | 987.6 |
| 20260906130521 | 15 | 134 | 0.0 | 0.0 | 0.00 | 0.51 | 0.00 | 70 | 987.6 |
| 20260906130022 | 15 | 134 | 0.0 | 1.6 | 0.00 | 0.51 | 0.00 | 70 | 987.5 |
| 20260906125519 | 15 | 134 | 0.0 | 1.6 | 0.00 | 0.61 | 0.00 | 70 | 987.5 |
| 20260906125018 | 15 | 134 | 0.0 | 1.6 | 0.00 | 0.61 | 0.00 | 70 | 987.5 |
| 20260906124517 | 15 | 134 | 0.0 | 1.6 | 0.00 | 0.61 | 0.00 | 70 | 987.2 |
| 20260906124021 | 15 | 134 | 0.0 | 0.0 | 0.00 | 0.61 | 0.00 | 70 | 987.3 |
| 20260906123521 | 15 | 134 | 0.0 | 1.6 | 0.00 | 0.61 | 0.00 | 70 | 987.3 |
| 20260906123018 | 15 | 134 | 0.0 | 1.6 | 0.00 | 0.61 | 0.00 | 70 | 987.2 |
| 20260906122517 | 15 | 134 | 0.0 | 1.6 | 0.00 | 0.61 | 0.00 | 70 | 986.8 |
| 20260906122017 | 15 | 135 | 0.0 | 1.6 | 0.00 | 0.61 | 0.00 | 70 | 986.9 |
| 20260906121517 | 15 | 135 | 0.0 | 1.6 | 0.00 | 0.61 | 0.00 | 70 | 987.0 |
| 20260906121016 | 15 | 135 | 0.0 | 0.0 | 0.00 | 0.61 | 0.00 | 70 | 987.2 |
| 20260906120517 | 15 | 135 | 0.0 | 0.0 | 0.00 | 0.61 | 0.00 | 70 | 987.3 |
| 20260906120015 | 15 | 135 | 0.0 | 1.6 | 0.00 | 0.61 | 0.00 | 70 | 987.2 |
| 20260906115516 | 15 | 135 | 0.0 | 1.6 | 0.00 | 0.61 | 0.00 | 70 | 987.0 |
| 20260906115014 | 15 | 135 | 0.0 | 0.0 | 0.00 | 0.61 | 0.00 | 70 | 987.0 |
| 20260906114528 | 15 | 135 | 0.0 | 0.0 | 0.00 | 0.61 | 0.00 | 70 | 987.1 |
| 20260906114015 | 15 | 135 | 0.0 | 0.0 | 0.00 | 0.61 | 0.00 | 70 | 987.1 |
| 20260906113513 | 15 | 135 | 0.0 | 0.0 | 0.00 | 0.61 | 0.00 | 70 | 987.2 |
| 20260906113017 | 15 | 135 | 0.0 | 0.0 | 0.00 | 0.61 | 0.00 | 70 | 987.1 |
| 20260906112513 | 15 | 135 | 0.0 | 0.0 | 0.00 | 0.61 | 0.00 | 70 | 987.0 |
| 20260906112013 | 15 | 135 | 0.0 | 1.6 | 0.00 | 0.61 | 0.00 | 70 | 986.9 |
| 20260906111513 | 15 | 135 | 0.0 | 4.8 | 0.00 | 0.61 | 0.00 | 70 | 987.0 |
| 20260906111012 | 15 | 135 | 0.0 | 4.8 | 0.00 | 0.61 | 0.00 | 70 | 987.0 |
| 20260906110512 | 15 | 13 | 0.0 | 0.0 | 0.00 | 0.61 | 0.00 | 70 | 987.0 |
| 20260906110013 | 14 | 14 | 0.0 | 0.0 | 0.00 | 0.61 | 0.00 | 70 | 986.9 |
| 20260906105514 | 14 | 13 | 0.0 | 0.0 | 0.00 | 0.61 | 0.00 | 69 | 986.8 |
| 20260906105010 | 14 | 14 | 0.0 | 0.0 | 0.00 | 0.61 | 0.00 | 70 | 986.9 |
| 20260906104514 | 14 | 14 | 0.0 | 0.0 | 0.00 | 0.61 | 0.00 | 70 | 986.9 |
| 20260906104009 | 14 | 13 | 0.0 | 0.0 | 0.00 | 0.61 | 0.00 | 69 | 986.9 |
| 20260906103509 | 14 | 14 | 0.0 | 0.0 | 0.00 | 0.61 | 0.00 | 70 | 986.9 |
| 20260906103009 | 15 | 13 | 0.0 | 0.0 | 0.00 | 0.61 | 0.00 | 70 | 986.7 |
| 20260906102508 | 15 | 13 | 0.0 | 0.0 | 0.00 | 0.61 | 0.00 | 70 | 986.5 |
| 20260906102008 | 14 | 14 | 0.0 | 0.0 | 0.00 | 0.61 | 0.00 | 70 | 986.6 |
| 20260906101518 | 14 | 14 | 0.0 | 0.0 | 0.00 | 0.61 | 0.00 | 70 | 986.6 |
| 20260906101007 | 14 | 14 | 0.0 | 0.0 | 0.00 | 0.61 | 0.00 | 70 | 986.7 |
| 20260906100509 | 14 | 13 | 0.0 | 3.2 | 0.00 | 0.61 | 0.00 | 69 | 986.6 |
| 20260906100007 | 14 | 14 | 0.0 | 3.2 | 0.00 | 0.61 | 0.00 | 69 | 986.5 |
| 20260906095507 | 14 | 14 | 0.0 | 0.0 | 0.00 | 0.61 | 0.00 | 69 | 986.6 |
| 20260906095006 | 14 | 14 | 0.0 | 3.2 | 0.00 | 0.61 | 0.00 | 69 | 986.6 |
| 20260906094506 | 14 | 14 | 0.0 | 3.2 | 0.00 | 0.61 | 0.00 | 69 | 986.6 |
| 20260906094005 | 14 | 14 | 1.6 | 4.8 | 0.00 | 0.61 | 0.00 | 69 | 986.4 |
| 20260906093505 | 14 | 14 | 1.6 | 4.8 | 0.00 | 0.61 | 0.00 | 69 | 986.3 |
| 20260906093005 | 14 | 140 | 0.0 | 0.0 | 0.00 | 0.61 | 0.00 | 69 | 986.4 |
| 20260906092504 | 14 | 140 | 0.0 | 0.0 | 0.00 | 0.61 | 0.00 | 69 | 986.4 |
| 20260906092004 | 14 | 140 | 0.0 | 0.0 | 0.00 | 0.61 | 0.00 | 69 | 986.5 |
| 20260906091504 | 14 | 140 | 0.0 | 0.0 | 0.00 | 0.61 | 0.00 | 69 | 986.4 |
| 20260906091002 | 15 | 140 | 0.0 | 0.0 | 0.00 | 0.61 | 0.00 | 69 | 986.6 |
| 20260906090502 | 15 | 140 | 0.0 | 0.0 | 0.00 | 0.61 | 0.00 | 69 | 986.4 |
| 20260906090002 | 15 | 140 | 0.0 | 0.0 | 0.00 | 0.61 | 0.00 | 69 | 986.6 |
| 20260906085502 | 15 | 140 | 0.0 | 0.0 | 0.00 | 0.61 | 0.00 | 69 | 986.5 |
| 20260906085059 | 15 | 140 | 0.0 | 0.0 | 0.00 | 0.61 | 0.00 | 68 | 986.5 |
| 20260906084559 | 15 | 140 | 0.0 | 1.6 | 0.00 | 0.61 | 0.00 | 69 | 986.4 |
| 20260906084058 | 15 | 140 | 0.0 | 1.6 | 0.00 | 0.61 | 0.00 | 69 | 986.4 |
| 20260906083602 | 15 | 140 | 0.0 | 3.2 | 0.00 | 0.61 | 0.00 | 69 | 986.3 |
| 20260906083100 | 15 | 140 | 0.0 | 4.8 | 0.00 | 0.61 | 0.00 | 69 | 986.2 |
| 20260906082558 | 15 | 136 | 0.0 | 3.2 | 0.00 | 0.61 | 0.00 | 69 | 986.3 |
| 20260906082058 | 15 | 136 | 0.0 | 0.0 | 0.00 | 0.61 | 0.00 | 69 | 986.2 |
| 20260906081557 | 15 | 136 | 0.0 | 0.0 | 0.00 | 0.61 | 0.00 | 68 | 986.1 |
| 20260906081101 | 15 | 136 | 0.0 | 0.0 | 0.00 | 0.61 | 0.00 | 69 | 986.0 |
| 20260906080600 | 15 | 136 | 0.0 | 0.0 | 0.00 | 0.61 | 0.00 | 68 | 986.1 |
| 20260906075554 | 15 | 136 | 0.0 | 3.2 | 0.00 | 0.61 | 0.00 | 68 | 986.0 |
| 20260906075053 | 16 | 136 | 0.0 | 3.2 | 0.00 | 0.61 | 0.00 | 68 | 986.0 |
| 20260906074554 | 16 | 136 | 0.0 | 0.0 | 0.00 | 0.61 | 0.00 | 68 | 986.1 |
| 20260906074052 | 16 | 136 | 0.0 | 0.0 | 0.00 | 0.61 | 0.00 | 68 | 986.2 |
| 20260906073553 | 16 | 136 | 0.0 | 0.0 | 0.00 | 0.61 | 0.00 | 68 | 986.2 |
| 20260906073054 | 16 | 136 | 0.0 | 0.0 | 0.00 | 0.61 | 0.00 | 68 | 986.1 |
| 20260906072552 | 16 | 136 | 0.0 | 0.0 | 0.00 | 0.61 | 0.00 | 68 | 986.1 |
| 20260906072052 | 16 | 136 | 0.0 | 0.0 | 0.00 | 0.61 | 0.00 | 68 | 986.2 |
| 20260906071554 | 16 | 136 | 0.0 | 0.0 | 0.00 | 0.61 | 0.00 | 68 | 986.3 |
| 20260906071050 | 16 | 136 | 0.0 | 0.0 | 0.00 | 0.61 | 0.00 | 68 | 986.3 |
| 20260906070550 | 16 | 136 | 0.0 | 1.6 | 0.00 | 0.61 | 0.00 | 68 | 986.3 |
| 20260906070056 | 16 | 136 | 0.0 | 1.6 | 0.00 | 0.61 | 0.00 | 68 | 986.3 |
| 20260906065549 | 16 | 136 | 0.0 | 0.0 | 0.00 | 0.61 | 0.00 | 68 | 986.4 |
| 20260906065049 | 16 | 136 | 0.0 | 1.6 | 0.00 | 0.61 | 0.00 | 68 | 986.3 |
| 20260906064552 | 16 | 136 | 0.0 | 1.6 | 0.00 | 0.61 | 0.00 | 68 | 986.2 |
| 20260906064048 | 16 | 136 | 0.0 | 1.6 | 0.00 | 0.61 | 0.00 | 68 | 986.4 |
| 20260906063548 | 16 | 136 | 0.0 | 1.6 | 0.00 | 0.61 | 0.00 | 68 | 986.3 |
| 20260906063049 | 16 | 136 | 0.0 | 0.0 | 0.00 | 0.61 | 0.00 | 68 | 986.3 |
| 20260906062546 | 16 | 136 | 0.0 | 0.0 | 0.00 | 0.61 | 0.00 | 68 | 986.3 |
| 20260906062046 | 16 | 136 | 0.0 | 0.0 | 0.00 | 0.61 | 0.00 | 68 | 986.2 |
| 20260906061545 | 16 | 136 | 0.0 | 0.0 | 0.00 | 0.61 | 0.00 | 68 | 986.2 |
| 20260906061045 | 16 | 136 | 0.0 | 0.0 | 0.00 | 0.61 | 0.00 | 67 | 986.3 |
| 20260906060545 | 16 | 136 | 0.0 | 0.0 | 0.00 | 0.61 | 0.00 | 67 | 986.3 |
| 20260906060045 | 16 | 136 | 0.0 | 0.0 | 0.00 | 0.61 | 0.00 | 67 | 986.3 |
| 20260906055545 | 16 | 136 | 0.0 | 0.0 | 0.00 | 0.61 | 0.00 | 67 | 986.3 |
| 20260906055044 | 16 | 136 | 0.0 | 0.0 | 0.00 | 0.61 | 0.00 | 67 | 986.3 |
| 20260906054557 | 16 | 136 | 0.0 | 0.0 | 0.00 | 0.61 | 0.00 | 67 | 986.2 |
| 20260906054043 | 16 | 136 | 0.0 | 0.0 | 0.00 | 0.61 | 0.00 | 67 | 986.1 |
| 20260906053543 | 16 | 136 | 0.0 | 0.0 | 0.00 | 0.61 | 0.00 | 67 | 986.2 |
| 20260906053042 | 16 | 136 | 0.0 | 0.0 | 0.00 | 0.61 | 0.00 | 67 | 986.3 |
| 20260906052542 | 16 | 136 | 0.0 | 0.0 | 0.00 | 0.61 | 0.00 | 67 | 986.3 |
| 20260906052041 | 16 | 136 | 0.0 | 0.0 | 0.00 | 0.61 | 0.00 | 66 | 986.2 |
| 20260906051602 | 16 | 136 | 0.0 | 0.0 | 0.00 | 0.61 | 0.00 | 66 | 986.3 |
| 20260906051040 | 16 | 136 | 0.0 | 1.6 | 0.00 | 0.61 | 0.00 | 66 | 986.2 |
| 20260906050543 | 16 | 136 | 0.0 | 1.6 | 0.00 | 0.61 | 0.00 | 66 | 986.3 |
| 20260906050044 | 17 | 136 | 0.0 | 1.6 | 0.00 | 0.61 | 0.00 | 66 | 986.2 |
| 20260906045541 | 17 | 136 | 0.0 | 0.0 | 0.00 | 0.61 | 0.61 | 65 | 986.2 |
| 20260906045041 | 17 | 136 | 0.0 | 0.0 | 0.00 | 0.61 | 0.61 | 65 | 986.1 |
| 20260906044548 | 17 | 136 | 0.0 | 1.6 | 0.00 | 0.61 | 0.61 | 65 | 986.2 |
| 20260906044037 | 17 | 136 | 0.0 | 1.6 | 0.00 | 0.61 | 0.61 | 64 | 986.3 |
| 20260906043537 | 17 | 136 | 0.0 | 1.6 | 0.00 | 0.61 | 0.61 | 64 | 986.3 |
| 20260906043038 | 17 | 136 | 0.0 | 4.8 | 0.00 | 0.61 | 0.61 | 65 | 986.4 |
| 20260906042537 | 17 | 136 | 1.6 | 4.8 | 0.00 | 0.61 | 0.61 | 65 | 986.3 |
| 20260906042041 | 17 | 150 | 1.6 | 4.8 | 0.00 | 0.61 | 0.61 | 65 | 986.3 |
| 20260906041537 | 17 | 139 | 0.0 | 3.2 | 0.00 | 0.61 | 0.61 | 65 | 986.5 |
| 20260906041038 | 17 | 139 | 0.0 | 3.2 | 0.00 | 0.61 | 0.61 | 64 | 986.5 |
| 20260906040537 | 17 | 139 | 0.0 | 1.6 | 0.00 | 0.61 | 0.61 | 64 | 986.4 |
| 20260906040110 | 18 | 139 | 0.0 | 1.6 | 0.00 | 0.61 | 0.61 | 63 | 986.4 |
| 20260906035537 | 18 | 139 | 0.0 | 1.6 | 0.00 | 0.61 | 0.61 | 63 | 986.4 |
| 20260906035036 | 18 | 139 | 0.0 | 1.6 | 0.00 | 0.61 | 0.61 | 63 | 986.4 |
| 20260906034536 | 18 | 139 | 0.0 | 3.2 | 0.00 | 0.61 | 0.61 | 63 | 986.3 |
| 20260906034036 | 18 | 139 | 0.0 | 6.4 | 0.00 | 0.61 | 0.61 | 63 | 986.3 |
| 20260906033536 | 18 | 139 | 1.6 | 6.4 | 0.00 | 0.61 | 0.61 | 63 | 986.3 |
| 20260906033048 | 18 | 148 | 0.0 | 3.2 | 0.00 | 0.61 | 0.61 | 63 | 986.3 |
| 20260906032539 | 19 | 148 | 0.0 | 4.8 | 0.00 | 0.61 | 0.61 | 63 | 986.2 |
| 20260906032035 | 19 | 148 | 0.0 | 6.4 | 0.00 | 0.61 | 0.61 | 63 | 986.2 |
| 20260906031536 | 19 | 146 | 0.0 | 1.6 | 0.00 | 0.61 | 0.61 | 63 | 986.1 |
| 20260906031037 | 19 | 146 | 0.0 | 3.2 | 0.00 | 0.61 | 0.61 | 63 | 986.1 |
| 20260906030535 | 19 | 146 | 1.6 | 8.0 | 0.00 | 0.61 | 0.61 | 63 | 986.0 |
| 20260906030035 | 19 | 146 | 1.6 | 8.0 | 0.00 | 0.61 | 0.61 | 64 | 986.1 |
| 20260906025534 | 19 | 166 | 1.6 | 6.4 | 0.00 | 0.61 | 0.61 | 64 | 986.2 |
| 20260906025034 | 19 | 193 | 0.0 | 0.0 | 0.00 | 0.61 | 0.61 | 64 | 986.2 |
| 20260906024534 | 19 | 194 | 0.0 | 0.0 | 0.00 | 0.61 | 0.61 | 64 | 986.2 |
| 20260906024034 | 19 | 194 | 0.0 | 0.0 | 0.00 | 0.61 | 0.61 | 63 | 986.2 |
| 20260906023534 | 19 | 194 | 0.0 | 0.0 | 0.00 | 0.61 | 0.61 | 63 | 986.2 |
| 20260906023034 | 19 | 194 | 0.0 | 0.0 | 0.00 | 0.61 | 0.61 | 63 | 986.0 |
| 20260906022534 | 19 | 194 | 0.0 | 0.0 | 0.00 | 0.61 | 0.61 | 64 | 986.2 |
| 20260906022034 | 19 | 194 | 0.0 | 0.0 | 0.00 | 0.61 | 0.61 | 63 | 986.0 |
| 20260906021534 | 19 | 194 | 0.0 | 0.0 | 0.00 | 0.61 | 0.61 | 64 | 986.0 |
| 20260906021033 | 19 | 194 | 0.0 | 0.0 | 0.00 | 0.61 | 0.61 | 63 | 985.9 |
| 20260906020534 | 19 | 194 | 0.0 | 0.0 | 0.00 | 0.61 | 0.61 | 63 | 985.9 |
| 20260906020035 | 19 | 194 | 0.0 | 0.0 | 0.00 | 0.61 | 0.61 | 62 | 985.9 |
| 20260906015533 | 19 | 194 | 0.0 | 0.0 | 0.00 | 0.61 | 0.61 | 61 | 985.9 |
| 20260906015033 | 20 | 194 | 0.0 | 0.0 | 0.00 | 0.61 | 0.61 | 61 | 985.9 |
| 20260906014533 | 20 | 194 | 0.0 | 0.0 | 0.00 | 0.61 | 0.61 | 60 | 985.9 |
| 20260906014032 | 20 | 194 | 0.0 | 0.0 | 0.00 | 0.61 | 0.61 | 60 | 985.7 |
| 20260906013532 | 20 | 194 | 0.0 | 0.0 | 0.00 | 0.61 | 0.61 | 59 | 985.6 |
| 20260906013034 | 21 | 194 | 0.0 | 0.0 | 0.00 | 0.61 | 0.61 | 58 | 985.6 |
| 20260906012532 | 21 | 194 | 0.0 | 0.0 | 0.00 | 0.61 | 0.61 | 57 | 985.5 |
| 20260906012032 | 21 | 194 | 0.0 | 0.0 | 0.00 | 0.61 | 0.61 | 57 | 985.5 |
| 20260906011532 | 22 | 194 | 0.0 | 0.0 | 0.00 | 0.61 | 0.61 | 57 | 985.3 |
| 20260906011031 | 22 | 194 | 0.0 | 0.0 | 0.00 | 0.61 | 0.61 | 57 | 985.3 |
| 20260906010531 | 22 | 194 | 0.0 | 0.0 | 0.00 | 0.61 | 0.61 | 57 | 985.4 |
| 20260906010032 | 23 | 194 | 0.0 | 0.0 | 0.00 | 0.61 | 0.61 | 57 | 985.4 |
| 20260906005531 | 23 | 194 | 0.0 | 0.0 | 0.00 | 0.61 | 0.61 | 57 | 985.4 |
| 20260906005031 | 23 | 194 | 0.0 | 0.0 | 0.00 | 0.61 | 0.61 | 56 | 985.4 |
| 20260906004530 | 23 | 194 | 0.0 | 0.0 | 0.00 | 0.61 | 0.61 | 56 | 985.3 |
| 20260906004031 | 24 | 194 | 0.0 | 1.6 | 0.00 | 0.61 | 0.61 | 55 | 985.2 |
| 20260906003535 | 25 | 194 | 0.0 | 1.6 | 0.00 | 0.61 | 0.61 | 55 | 984.9 |
| 20260906003030 | 25 | 194 | 0.0 | 3.2 | 0.00 | 0.61 | 0.61 | 55 | 985.0 |
| 20260906002532 | 25 | 194 | 0.0 | 4.8 | 0.00 | 0.61 | 0.61 | 55 | 984.8 |
| 20260906002030 | 25 | 194 | 0.0 | 6.4 | 0.00 | 0.61 | 0.61 | 55 | 984.9 |
| 20260906001533 | 25 | 182 | 0.0 | 6.4 | 0.00 | 0.61 | 0.61 | 54 | 984.9 |
| 20260906001030 | 25 | 188 | 0.0 | 6.4 | 0.00 | 0.61 | 0.61 | 54 | 984.9 |
| 20260906000530 | 25 | 184 | 0.0 | 0.0 | 0.00 | 0.61 | 0.61 | 54 | 984.8 |
| 20260906000031 | 24 | 184 | 0.0 | 0.0 | 0.00 | 0.61 | 0.61 | 55 | 984.8 |
| 20260905235529 | 24 | 184 | 0.0 | 0.0 | 0.00 | 0.61 | 0.61 | 55 | 984.6 |
| 20260905235030 | 23 | 184 | 0.0 | 1.6 | 0.00 | 0.61 | 0.61 | 55 | 984.7 |
| 20260905234529 | 23 | 184 | 0.0 | 1.6 | 0.00 | 0.61 | 0.61 | 55 | 984.7 |
| 20260905234029 | 23 | 184 | 0.0 | 0.0 | 0.00 | 0.61 | 0.61 | 55 | 984.7 |
| 20260905233529 | 23 | 184 | 0.0 | 0.0 | 0.00 | 0.61 | 0.61 | 55 | 984.6 |
| 20260905233029 | 23 | 184 | 0.0 | 1.6 | 0.00 | 0.61 | 0.61 | 55 | 984.6 |
| 20260905232529 | 23 | 184 | 0.0 | 4.8 | 0.00 | 0.61 | 0.61 | 55 | 984.5 |
| 20260905232029 | 23 | 184 | 0.0 | 4.8 | 0.00 | 0.61 | 0.61 | 55 | 984.5 |
| 20260905231529 | 23 | 184 | 0.0 | 6.4 | 0.00 | 0.61 | 0.61 | 55 | 984.5 |
| 20260905231028 | 24 | 182 | 3.2 | 6.4 | 0.00 | 0.61 | 0.61 | 55 | 984.5 |
| 20260905230528 | 24 | 202 | 0.0 | 8.0 | 0.00 | 0.61 | 0.61 | 54 | 984.4 |
| 20260905230029 | 24 | 203 | 1.6 | 12.9 | 0.00 | 0.61 | 0.61 | 54 | 984.3 |
| 20260905225031 | 25 | 186 | 1.6 | 8.0 | 0.00 | 0.61 | 0.61 | 52 | 984.2 |
| 20260905224605 | 25 | 147 | 1.6 | 8.0 | 0.00 | 0.61 | 0.61 | 52 | 984.1 |
| 20260905224031 | 25 | 149 | 1.6 | 14.5 | 0.00 | 0.61 | 0.61 | 51 | 984.1 |
| 20260905223531 | 25 | 96 | 8.0 | 17.7 | 0.00 | 0.61 | 0.61 | 50 | 984.3 |
| 20260905223031 | 26 | 150 | 3.2 | 11.3 | 0.00 | 0.61 | 0.61 | 49 | 984.3 |
| 20260905222530 | 26 | 123 | 3.2 | 11.3 | 0.00 | 0.61 | 0.61 | 49 | 984.2 |
| 20260905222030 | 26 | 152 | 6.4 | 11.3 | 0.00 | 0.61 | 0.61 | 48 | 984.2 |
| 20260905221530 | 26 | 130 | 4.8 | 16.1 | 0.00 | 0.61 | 0.61 | 48 | 984.4 |
| 20260905221032 | 26 | 184 | 8.0 | 16.1 | 0.00 | 0.61 | 0.61 | 48 | 984.1 |
| 20260905220529 | 26 | 173 | 8.0 | 16.1 | 0.00 | 0.61 | 0.61 | 49 | 984.2 |
| 20260905220029 | 26 | 113 | 4.8 | 17.7 | 0.00 | 0.61 | 0.61 | 51 | 984.1 |
| 20260905215529 | 26 | 119 | 9.7 | 19.3 | 0.00 | 0.61 | 0.61 | 49 | 984.0 |
| 20260905215030 | 26 | 138 | 6.4 | 19.3 | 0.00 | 0.61 | 0.61 | 50 | 984.0 |
| 20260905214528 | 26 | 110 | 9.7 | 19.3 | 0.00 | 0.61 | 0.61 | 49 | 984.1 |
| 20260905214027 | 26 | 121 | 8.0 | 17.7 | 0.00 | 0.61 | 0.61 | 49 | 984.1 |
| 20260905213526 | 25 | 123 | 8.0 | 20.9 | 0.00 | 0.61 | 0.61 | 43 | 984.2 |
| 20260905213026 | 25 | 110 | 9.7 | 20.9 | 0.00 | 0.61 | 0.61 | 44 | 984.2 |
| 20260905212530 | 25 | 153 | 9.7 | 17.7 | 0.00 | 0.61 | 0.61 | 44 | 984.2 |
| 20260905212024 | 25 | 131 | 8.0 | 22.5 | 0.00 | 0.61 | 0.61 | 44 | 984.3 |
| 20260905211538 | 25 | 122 | 9.7 | 22.5 | 0.00 | 0.61 | 0.61 | 45 | 984.3 |
| 20260905211022 | 25 | 142 | 12.9 | 22.5 | 0.00 | 0.61 | 0.61 | 46 | 984.4 |